Everett, WA

4:40 PM PST on November 17, 2019 (GMT -0800)
Snohomish County

Weather History for KPAE - August, 2019

Change the Weather History Date:

Friday, August 2, 2019

  Actual Average Record
Temperature  
Mean Temperature 68 °F -  
Max Temperature 73 °F 73 °F 85 °F (1968)
Min Temperature 61 °F 54 °F 46 °F (1952)
Cooling Degree Days 2    
Growing Degree Days 18 (Base 50)    
Moisture  
Dew Point 59 °F    
Average Humidity 77    
Maximum Humidity 93    
Minimum Humidity 55    
Precipitation  
Precipitation 0.17 in - - ()
Sea Level Pressure  
Sea Level Pressure 30.08 in    
Wind  
Wind Speed 14 mph (WSW)    
Max Wind Speed 22 mph    
Max Gust Speed 32 mph    
Visibility 10 miles    
Events Rain    
Averages and records for this station are not official NWS values.
T = Trace of Precipitation, MM = Missing Value Source: NWS Daily Summary

Daily Weather History Graph

Daily Weather History Graph

Search for Another Location

Airport or City:

Astronomy

Aug. 02, 2019 Rise Set
Actual Time 5:46 AM PDT 8:43 PM PDT
Civil Twilight 5:10 AM PDT 9:19 PM PDT
Nautical Twilight 4:23 AM PDT 10:05 PM PDT
Astronomical Twilight 3:27 AM PDT 11:01 PM PDT
Moon 7:36 AM PDT (8/2) 10:07 PM PDT (8/2)
Length of Visible Light 16h 08m
Length of Day
14h 56m
Waxing Crescent, 4% of the Moon is Illuminated
Aug 2
Waxing Crescent
Aug 7
First Quarter
Aug 15
Full
Aug 23
Last Quarter
Aug 30
New

Hourly Weather History & Observations

Time (PDT) Temp. Dew Point Humidity Pressure Visibility Wind Dir Wind Speed Gust Speed Precip Events Conditions
12:53 AM 68.0 °F 57.0 °F 68% 29.96 in 10.0 mi South 21.9 mph - N/A   Mostly Cloudy
1:53 AM 66.9 °F 57.9 °F 73% 29.96 in 10.0 mi South 15.0 mph - N/A   Partly Cloudy
2:53 AM 66.9 °F 57.9 °F 73% 29.95 in 10.0 mi SSE 11.5 mph - 0.00 in Rain Light Rain
3:31 AM 64.0 °F 60.1 °F 87% 29.98 in 3.0 mi South 18.4 mph 21.9 mph 0.12 in Rain Rain
3:53 AM 64.0 °F 60.1 °F 87% 29.97 in 6.0 mi SSE 18.4 mph 24.2 mph 0.16 in Rain Light Rain
4:27 AM 63.0 °F 61.0 °F 93% 29.98 in 10.0 mi South 15.0 mph 25.3 mph 0.01 in Rain Light Rain
4:43 AM 63.0 °F 61.0 °F 93% 29.98 in 10.0 mi South 20.7 mph 27.6 mph 0.01 in Rain Light Rain
4:53 AM 63.0 °F 61.0 °F 93% 29.97 in 10.0 mi South 18.4 mph 27.6 mph 0.01 in   Overcast
5:43 AM 63.0 °F 61.0 °F 93% 30.00 in 10.0 mi South 17.3 mph 27.6 mph N/A   Overcast
5:53 AM 63.0 °F 61.0 °F 93% 29.99 in 10.0 mi South 19.6 mph 28.8 mph N/A   Mostly Cloudy
6:53 AM 64.0 °F 61.0 °F 90% 30.01 in 10.0 mi South 18.4 mph 28.8 mph N/A   Mostly Cloudy
7:01 AM 64.0 °F 61.0 °F 90% 30.02 in 10.0 mi South 17.3 mph 32.2 mph N/A   Mostly Cloudy
7:53 AM 64.9 °F 62.1 °F 90% 30.04 in 10.0 mi South 11.5 mph - N/A   Overcast
8:53 AM 66.0 °F 61.0 °F 84% 30.07 in 10.0 mi South 10.4 mph - N/A   Overcast
9:53 AM 69.1 °F 61.0 °F 75% 30.09 in 10.0 mi SSW 15.0 mph - N/A   Overcast
10:00 AM 66.9 °F 61.0 °F 81% 30.10 in 10.0 mi SW 10.4 mph - N/A   Mostly Cloudy
10:53 AM 68.0 °F 61.0 °F 78% 30.11 in 10.0 mi South 10.4 mph - N/A   Mostly Cloudy
11:00 AM 68.0 °F 61.0 °F 78% 30.12 in 10.0 mi Variable 6.9 mph - N/A   Overcast
11:07 AM 68.0 °F 61.0 °F 78% 30.12 in 10.0 mi SW 5.8 mph - N/A   Mostly Cloudy
11:32 AM 64.0 °F 60.1 °F 87% 30.13 in 10.0 mi NW 5.8 mph - N/A   Overcast
11:53 AM 64.0 °F 60.1 °F 87% 30.13 in 10.0 mi NNW 4.6 mph - N/A   Overcast
12:20 PM 64.0 °F 60.1 °F 87% 30.14 in 10.0 mi North 5.8 mph - N/A   Overcast
12:53 PM 64.9 °F 59.0 °F 81% 30.14 in 10.0 mi NNW 6.9 mph - N/A   Overcast
1:18 PM 68.0 °F 57.9 °F 70% 30.14 in 10.0 mi North 5.8 mph - N/A   Mostly Cloudy
1:53 PM 70.0 °F 55.9 °F 61% 30.14 in 10.0 mi North 10.4 mph - N/A   Mostly Cloudy
2:00 PM 70.0 °F 57.0 °F 63% 30.15 in 10.0 mi NNW 8.1 mph - N/A   Partly Cloudy
2:53 PM 70.0 °F 55.0 °F 59% 30.14 in 10.0 mi NNW 8.1 mph - N/A   Mostly Cloudy
3:53 PM 73.0 °F 55.9 °F 55% 30.13 in 10.0 mi North 6.9 mph - N/A   Clear
4:53 PM 73.9 °F 57.0 °F 55% 30.12 in 10.0 mi North 6.9 mph - N/A   Clear
5:53 PM 73.0 °F 55.9 °F 55% 30.12 in 10.0 mi North 6.9 mph - N/A   Clear
6:53 PM 70.0 °F 55.0 °F 59% 30.12 in 10.0 mi North 6.9 mph - N/A   Clear
7:53 PM 66.9 °F 55.0 °F 66% 30.13 in 10.0 mi North 6.9 mph - N/A   Mostly Cloudy
8:53 PM 64.0 °F 55.0 °F 73% 30.14 in 10.0 mi North 8.1 mph - N/A   Overcast
9:53 PM 64.0 °F 55.0 °F 73% 30.15 in 10.0 mi North 5.8 mph - N/A   Overcast
10:53 PM 62.1 °F 53.1 °F 72% 30.16 in 10.0 mi NNE 5.8 mph - N/A   Partly Cloudy
11:53 PM 61.0 °F 51.1 °F 70% 30.16 in 10.0 mi North 6.9 mph - N/A   Clear